Stone Corral
DateTemperatureDew Point
09/03 - 01:30 PM84.8°57.4°
09/03 - 01:15 PM84.2°57.0°
09/03 - 01:00 PM83.6°57.0°
09/03 - 12:45 PM83.5°57.7°
09/03 - 12:30 PM82.6°57.5°
09/03 - 12:15 PM81.8°57.5°
09/03 - 12:00 PM80.7°57.8°
09/03 - 11:45 AM80.1°56.5°
09/03 - 11:30 AM79.3°57.0°
09/03 - 11:15 AM78.3°57.1°
09/03 - 11:00 AM77.1°56.4°
09/03 - 10:45 AM76.0°56.0°
09/03 - 10:30 AM74.7°56.0°
09/03 - 10:15 AM74.1°56.8°
09/03 - 10:00 AM72.3°56.2°
09/03 - 09:45 AM71.0°55.4°
09/03 - 09:30 AM70.1°55.5°
09/03 - 09:15 AM69.0°55.3°
09/03 - 09:00 AM67.8°55.2°
09/03 - 08:45 AM66.2°55.5°
09/03 - 08:30 AM65.2°55.0°
09/03 - 08:15 AM63.9°54.5°
09/03 - 08:00 AM62.2°54.0°
09/03 - 07:45 AM59.7°54.0°
09/03 - 07:30 AM56.0°53.7°
09/03 - 07:15 AM55.0°52.7°
09/03 - 07:00 AM54.5°52.0°
09/03 - 06:45 AM53.9°51.0°
09/03 - 06:30 AM53.9°50.6°
09/03 - 06:15 AM53.7°50.1°
09/03 - 06:00 AM54.0°50.0°
09/03 - 05:45 AM54.6°50.0°
09/03 - 05:30 AM55.4°50.2°
09/03 - 05:15 AM56.5°50.1°
09/03 - 05:00 AM56.7°49.8°
09/03 - 04:45 AM55.6°48.8°
09/03 - 04:30 AM54.8°48.6°
09/03 - 04:15 AM55.1°48.9°
09/03 - 04:00 AM55.4°48.0°
09/03 - 03:45 AM55.7°47.8°
09/03 - 03:30 AM56.5°48.4°
09/03 - 03:15 AM57.1°48.1°
09/03 - 03:00 AM57.4°47.4°
09/03 - 02:45 AM57.7°48.1°
09/03 - 02:30 AM58.7°49.9°
09/03 - 02:15 AM59.1°49.1°
09/03 - 02:00 AM59.1°47.1°
09/03 - 01:45 AM59.1°47.5°
09/03 - 01:30 AM59.5°48.2°
09/03 - 01:15 AM59.9°48.4°
09/03 - 01:00 AM60.8°49.7°
09/03 - 12:45 AM61.6°50.0°
09/03 - 12:30 AM61.9°48.8°
09/03 - 12:15 AM62.0°48.9°
09/03 - 12:00 AM61.9°50.4°
09/02 - 11:45 PM63.0°50.8°
09/02 - 11:30 PM63.6°48.1°
09/02 - 11:15 PM64.5°48.5°
09/02 - 11:00 PM64.4°47.2°
09/02 - 10:45 PM65.4°48.5°
09/02 - 10:30 PM66.9°49.1°
09/02 - 10:15 PM68.4°49.2°
09/02 - 10:00 PM67.6°47.6°
09/02 - 09:45 PM66.4°47.9°
09/02 - 09:30 PM66.7°50.1°
09/02 - 09:15 PM67.4°50.9°
09/02 - 09:00 PM67.7°49.3°
09/02 - 08:45 PM68.1°49.4°
09/02 - 08:30 PM68.7°49.2°
09/02 - 08:15 PM69.4°48.7°
09/02 - 08:00 PM70.3°50.0°
09/02 - 07:45 PM72.1°50.0°
09/02 - 07:30 PM73.9°49.6°
09/02 - 07:15 PM75.9°50.3°
09/02 - 07:00 PM76.7°50.7°
09/02 - 06:45 PM78.0°51.5°
09/02 - 06:30 PM79.3°51.9°
09/02 - 06:15 PM80.5°51.7°
09/02 - 06:00 PM81.3°51.8°
09/02 - 05:45 PM82.0°52.0°
09/02 - 05:30 PM82.4°52.4°
09/02 - 05:15 PM83.1°52.5°
09/02 - 05:00 PM83.4°52.7°
09/02 - 04:45 PM83.5°52.8°
09/02 - 04:30 PM84.0°53.2°
09/02 - 04:15 PM83.9°53.0°
09/02 - 04:00 PM83.7°52.9°
09/02 - 03:45 PM84.0°53.4°
09/02 - 03:30 PM83.6°54.8°
09/02 - 03:15 PM84.1°55.2°
09/02 - 03:00 PM83.3°54.7°
09/02 - 02:45 PM83.4°54.7°
09/02 - 02:30 PM83.7°54.5°
09/02 - 02:15 PM84.0°54.9°
09/02 - 02:00 PM83.9°54.8°
09/02 - 01:45 PM82.7°54.1°
09/02 - 01:30 PM82.4°54.6°
09/02 - 01:15 PM81.9°54.4°
09/02 - 01:00 PM81.7°53.1°
09/02 - 12:45 PM81.6°54.0°
09/02 - 12:30 PM79.5°53.7°
09/02 - 12:15 PM79.8°53.9°
09/02 - 12:00 PM79.2°53.8°
09/02 - 11:45 AM78.2°53.6°
09/02 - 11:30 AM77.6°53.6°
09/02 - 11:15 AM76.3°53.5°
09/02 - 11:00 AM75.7°53.1°
09/02 - 10:45 AM74.2°52.3°
09/02 - 10:30 AM73.0°52.1°
09/02 - 10:15 AM71.3°52.0°
09/02 - 10:00 AM70.4°51.7°
09/02 - 09:45 AM69.4°51.5°
09/02 - 09:30 AM68.4°52.0°
09/02 - 09:15 AM66.7°52.3°
09/02 - 09:00 AM65.1°52.3°
09/02 - 08:45 AM64.5°52.6°
09/02 - 08:30 AM62.5°52.5°
09/02 - 08:15 AM60.4°52.4°
09/02 - 08:00 AM58.7°52.2°
09/02 - 07:45 AM57.0°52.2°
09/02 - 07:30 AM55.4°51.8°
09/02 - 07:15 AM54.5°51.1°
09/02 - 07:00 AM53.5°50.0°
09/02 - 06:45 AM53.3°49.4°
09/02 - 06:30 AM53.5°49.2°
09/02 - 06:15 AM54.3°49.4°
09/02 - 06:00 AM55.2°49.5°
09/02 - 05:45 AM56.5°49.9°
09/02 - 05:30 AM57.1°49.9°
09/02 - 05:15 AM57.4°49.8°
09/02 - 05:00 AM58.3°50.1°
09/02 - 04:45 AM58.5°50.3°
09/02 - 04:30 AM58.5°49.9°
09/02 - 04:15 AM58.6°49.7°
09/02 - 04:00 AM58.0°49.5°
09/02 - 03:45 AM57.0°48.3°
09/02 - 03:30 AM57.3°48.3°
09/02 - 03:15 AM57.2°48.0°
09/02 - 03:00 AM58.2°47.6°
09/02 - 02:45 AM60.0°47.4°
09/02 - 02:30 AM61.2°47.6°
09/02 - 02:15 AM61.5°48.1°
09/02 - 02:00 AM59.1°47.9°
09/02 - 01:45 AM58.8°47.6°
09/02 - 01:30 AM60.2°48.5°
09/02 - 01:15 AM62.0°48.9°
09/02 - 01:00 AM64.4°49.0°
09/02 - 12:45 AM65.1°48.7°
09/02 - 12:30 AM65.4°48.5°
09/02 - 12:15 AM65.7°48.3°
09/02 - 12:00 AM66.4°48.0°
09/01 - 11:45 PM66.2°47.8°
09/01 - 11:30 PM67.5°47.8°
09/01 - 11:15 PM67.9°47.7°
09/01 - 11:00 PM67.4°48.1°
09/01 - 10:45 PM66.2°48.8°
09/01 - 10:30 PM66.6°49.4°
09/01 - 10:15 PM68.2°48.5°
09/01 - 10:00 PM69.8°47.3°
09/01 - 09:45 PM70.7°47.6°
09/01 - 09:30 PM70.7°47.9°
09/01 - 09:15 PM70.9°47.5°
09/01 - 09:00 PM69.6°47.5°
09/01 - 08:45 PM68.7°48.3°
09/01 - 08:30 PM68.4°48.0°
09/01 - 08:15 PM69.3°49.8°
09/01 - 08:00 PM70.0°50.4°
09/01 - 07:45 PM71.0°50.5°
09/01 - 07:30 PM73.0°51.7°
09/01 - 07:15 PM74.4°51.4°
09/01 - 07:00 PM75.6°51.4°
09/01 - 06:45 PM77.0°51.0°
09/01 - 06:30 PM78.6°50.2°
09/01 - 06:15 PM79.9°50.0°
09/01 - 06:00 PM81.0°49.9°
09/01 - 05:45 PM81.9°49.6°
09/01 - 05:30 PM82.6°49.1°
09/01 - 05:15 PM83.0°48.9°
09/01 - 05:00 PM83.7°48.9°
09/01 - 04:45 PM83.7°49.5°
09/01 - 04:30 PM84.2°49.5°
09/01 - 04:15 PM83.9°49.8°
09/01 - 04:00 PM84.4°50.2°
09/01 - 03:45 PM84.7°49.6°
09/01 - 03:30 PM85.1°51.1°
09/01 - 03:15 PM85.3°51.9°
09/01 - 03:00 PM85.2°51.4°
09/01 - 02:45 PM84.3°52.3°
09/01 - 02:30 PM84.1°53.6°
09/01 - 02:15 PM85.1°54.5°
09/01 - 02:00 PM85.1°55.5°